This demonstration page uses our WeatherBlox Daily Observations layout. Learn more.

Left ArrowRight Arrow

39.01783, -85.05884

Hourly Observations for September 4, 2018

Temp ( °F °C ) Dew Point ( °F °C ) Humidity (%) Winds ( mph kmh ) Pressure ( in mb ) Visibility ( mi km ) Precip ( " mm )
12:52 am 00:52 Clear 78 25.6 71 21.7 79 79 N N/A 30.22 1023 10 16 N/A
1:52 am 01:52 Clear 79 26.1 71 21.7 77 77 SSE 3 6 30.22 1023 10 16 N/A
2:52 am 02:52 Clear 77 25 71 21.7 82 82 SSE 6 9 30.20 1023 10 16 N/A
3:52 am 03:52 Clear 78 25.6 71 21.7 79 79 N N/A 30.20 1023 10 16 N/A
4:52 am 04:52 Clear 75 23.9 71 21.7 88 88 SSE 6 9 30.19 1023 10 16 N/A
5:52 am 05:52 Clear 75 23.9 72 22.2 90 90 N N/A 30.19 1023 10 16 N/A
6:52 am 06:52 Clear 77 25 71 21.7 82 82 N 3 6 30.20 1023 10 16 N/A
7:52 am 07:52 Sunny 76 24.4 73 22.8 91 91 N N/A 30.23 1024 10 16 N/A
8:52 am 08:52 Sunny 79 26.1 74 23.3 85 85 N N/A 30.24 1024 10 16 N/A
9:52 am 09:52 Sunny 83 28.3 73 22.8 72 72 SSE 3 6 30.24 1024 10 16 N/A
10:52 am 10:52 Sunny 86 30 72 22.2 63 63 SW 3 6 30.24 1024 10 16 N/A
11:52 am 11:52 Mostly Sunny 90 32.2 72 22.2 56 56 N N/A 30.24 1024 10 16 N/A
12:52 pm 12:52 Partly Cloudy 90 32.2 71 21.7 54 54 N N/A 30.23 1024 10 16 N/A
1:52 pm 13:52 Partly Cloudy 92 33.3 70 21.1 49 49 VRB 3 6 30.21 1023 10 16 N/A
2:52 pm 14:52 Partly Cloudy 90 32.2 70 21.1 52 52 N N/A 30.19 1022 10 16 N/A
3:52 pm 15:52 Partly Cloudy 93 33.9 68 20 44 44 SSE 6 9 30.16 1021 10 16 N/A
4:52 pm 16:52 Partly Cloudy 92 33.3 69 20.6 47 47 SSW 9 15 30.15 1021 10 16 N/A
5:22 pm 17:22 Mostly Cloudy with Thunderstorms 91 32.8 71 21.7 52 52 NNE 15 24 30.12 1020 10 16 N/A
5:42 pm 17:42 Partly Cloudy 90 32.2 70 21.1 52 52 VRB 6 9 30.12 1020 10 16 N/A
5:52 pm 17:52 Partly Cloudy with Nearby Thunderstorms 90 32.2 70 21.1 52 52 SE 6 9 30.15 1021 10 16 N/A
6:07 pm 18:07 Partly Cloudy 89 31.7 70 21.1 53 53 E 5 7 30.12 1020 10 16 N/A
6:52 pm 18:52 Mostly Sunny 89 31.7 71 21.7 55 55 E 5 7 30.14 1021 10 16 N/A
7:52 pm 19:52 Mostly Sunny 86 30 71 21.7 61 61 ESE 6 9 30.14 1021 10 16 N/A
8:52 pm 20:52 Mostly Clear 83 28.3 71 21.7 67 67 N N/A 30.15 1021 10 16 N/A
9:52 pm 21:52 Clear 79 26.1 72 22.2 79 79 SSE 5 7 30.16 1021 10 16 N/A
10:52 pm 22:52 Clear 80 26.7 73 22.8 79 79 S 3 6 30.16 1022 10 16 N/A
11:52 pm 23:52 Clear 79 26.1 73 22.8 82 82 N N/A 30.16 1022 10 16 N/A

Powered by AerisWeather